User: anonymous   Login
Location: Unspecified
(0.0000°N, 0.0000°E)
Time: 00:09:24
(UTC+00:00)
Language:

PELICAN-4 - Orbit

View from above orbital plane
View from above orbital plane
View from above satellite
View from above satellite

Ground track
Ground track

The orbit is defined by the following mean orbital elements,

1 65316U          26145.46185694 +.00000000 +00000-0 +28322-4 0 00006
2 65316  97.1985 222.1017 0002144 102.7180 257.4307 15.40684201    06
Epoch (UTC): 25 May 2026 11:05:04
Eccentricity: 0.0002144
inclination: 97.1985°
perigee height: 443 km
apogee height: 446 km
right ascension of ascending node: 222.1017°
argument of perigee: 102.7180°
revolutions per day: 15.40684201
mean anomaly at epoch: 257.4307°

The dashed part of the orbit path shows where the satellite is in the earth's shadow,  

DLR